Regional Weather Roundup
Issued by NWS Mt. Holly, NJ

Home | Current Version | Previous Version | Text Only | Print | Product List | Glossary On
Versions: 1 2 3 4 5 6 7 8 9 10 11 12 13 14 15 16 17 18 19 20 21 22 23 24 25 26 27 28
000
ASUS41 KPHI 310410
RWRPHI

REGIONAL WEATHER ROUNDUP
NATIONAL WEATHER SERVICE MOUNT HOLLY NJ
1200 AM EDT FRI OCT 31 2014

NOTE:  "FAIR" INDICATES FEW OR NO CLOUDS BELOW 12,000 FEET WITH NO
SIGNIFICANT WEATHER AND/OR OBSTRUCTIONS TO VISIBILITY.

 * = STATION DOES NOT REPORT PRECIPITATION (E.G. RAIN, SNOW, ETC.)
        OR FOG.

NJZ015>026-310500-
SOUTHERN NEW JERSEY

CITY           SKY/WX    TMP DP  RH WIND       PRES   REMARKS
POMONA         CLEAR     41  35  79 CALM      30.03F
RIO GRANDE*    CLEAR     45  34  65 N7        30.04S
MILLVILLE      CLEAR     41  36  82 N5        30.03F
WRIGHTSTOWN    CLEAR     39  35  85 CALM      30.01F
MOUNT HOLLY    CLEAR     38  34  85 CALM      30.03F
TRENTON        CLEAR     41  32  70 NW3       30.02F

$$
NJZ001>014-310500-
NORTHERN NEW JERSEY

CITY           SKY/WX    TMP DP  RH WIND       PRES   REMARKS
SUSSEX         CLEAR     34  31  88 CALM      30.03S
ANDOVER*         N/A     34  32  92 CALM      30.03F
MORRISTOWN     CLEAR     36  32  87 CALM      30.03S
NEWARK         CLEAR     47  33  58 N5        30.02F
TETERBORO      CLEAR     45  34  65 NW3       30.02S
CALDWELL       PTCLDY    39  33  79 CALM      30.03F
SOMERVILLE     CLEAR     35  32  88 CALM      30.02S
ALLAIRE*       CLEAR     41  30  65 NW3       30.02F
TOMS RIVER*    CLEAR     34  30  86 CALM      30.02F

$$
PAZ043-044-047-054-055-060>062-066>071-310500-
EASTERN PENNSYLVANIA

CITY           SKY/WX    TMP DP  RH WIND       PRES   REMARKS
PHILADELPHIA   CLEAR     47  34  60 NW5       30.04F
NORTH PHILA    CLEAR     42  33  70 CALM      30.05F
BLUE BELL      CLEAR     36  36 100 CALM      30.03S
DOYLESTOWN     CLEAR     37  33  85 CALM      30.03S
QUAKERTOWN*    CLEAR     34  32  93 CALM      30.04R
POTTSTOWN      CLEAR     36  33  89 CALM      30.05S
LANCASTER      CLOUDY    44  38  79 E3        30.04S
COATESVILLE    MOCLDY    39  36  87 CALM      30.04S
READING        MOCLDY    39  33  79 CALM      30.03F
ALLENTOWN      CLEAR     38  31  76 W3        30.04S
MOUNT POCONO   CLEAR     30  27  88 SE3       29.99F
HAZLETON       CLEAR     32  32 100 N3        30.03F
WILKES BARRE   CLEAR     38  31  76 E6        30.02S WCI  33

$$
DEZALL-MDZ008-012-015-019-020-310500-
DELAWARE AND EASTERN MARYLAND

CITY           SKY/WX    TMP DP  RH WIND       PRES   REMARKS
WILMINGTON     CLEAR     39  35  86 NW5       30.05S
DOVER          CLEAR     42  38  88 N5        30.01F
GEORGETOWN     CLEAR     47  38  71 NW3       30.04S
EASTON         CLEAR     46  42  83 CALM      30.07S
PATUXENT       CLEAR     50  40  68 N6        30.03F
OCEAN CITY     CLEAR     44  39  82 N6        30.02S
WALLOPS ISLAND CLEAR     47  39  74 N6        30.02F
CAMBRIDGE      CLEAR     48  39  71 N3        30.02F
SALISBURY      CLEAR     47  38  71 N3        30.02F

$$
PAZ001-021-NYZ056-072-MDZ011-DCZ001-310500-
OTHER NEARBY LOCATIONS

CITY           SKY/WX    TMP DP  RH WIND       PRES   REMARKS
HARRISBURG     MOCLDY    47  39  74 CALM      30.03S
STATE COLLEGE  CLOUDY    41  33  74 CALM      30.02F
WILLIAMSPORT   CLEAR     38  32  79 N7        30.03F WCI  33
BINGHAMTON     CLEAR     37  29  72 N6        30.00F WCI  32
NEW YORK CITY  CLEAR     48  34  58 MISG      30.04F
BALTIMORE      MOCLDY    49  39  68 CALM      30.03F
WASHINGTON DC  PTCLDY    50  36  58 NW7       30.05S

$$



USA.gov is the U.S. government's official web portal to all federal, state and local government web resources and services.